Location: Eaton Estates
(41.3089°N, 82.0057°W)
Time: 08:28:17
(UTC+00:00)

ISS - Visible Passes

Search period start: 28 November 2022 00:00
Search period end: 08 December 2022 00:00
Orbit: 411 x 420 km, 51.6° (Epoch: 28 November)

Date Brightness Start Highest point End Pass type
(mag) Time Alt. Az. Time Alt. Az. Time Alt. Az.
28 Nov -1.3 23:53:02 10° NNW 23:54:02 14° NNW 23:54:02 14° NNW visible
29 Nov -1.7 23:04:21 10° NNW 23:06:19 15° N 23:07:19 13° NNE visible
30 Nov -1.7 23:52:08 10° NW 23:53:32 18° NNW 23:53:32 18° NNW visible
01 Dec -2.1 23:03:31 10° NNW 23:06:00 19° NNE 23:06:54 17° NE visible
02 Dec -2.6 23:51:05 10° NW 23:53:16 33° NNW 23:53:16 33° NNW visible
03 Dec -2.9 23:02:24 10° NW 23:05:26 31° NNE 23:06:50 22° ENE visible
04 Dec -0.7 00:39:05 10° WNW 00:39:45 15° WNW 00:39:45 15° WNW visible
04 Dec -3.6 23:50:07 10° WNW 23:53:25 66° SW 23:53:31 66° SSW visible
05 Dec -3.9 23:01:15 10° NW 23:04:34 71° NNE 23:07:33 12° ESE visible
06 Dec -0.6 00:39:12 10° W 00:40:30 13° WSW 00:40:30 13° WSW visible
06 Dec -1.4 23:49:29 10° W 23:52:11 23° SW 23:54:52 10° S visible
07 Dec -2.4 23:00:15 10° WNW 23:03:24 41° SW 23:06:32 10° SSE visible
